Location: Newark
(25.3833°N, 97.4000°E)
Time: 07:46:37
(UTC+00:00)

Starlink Launch 2 leader - Visible Passes

Search period start: 13 December 2019 00:00
Search period end: 23 December 2019 00:00
Orbit: 279 x 281 km, 53.0° (Epoch: 13 November)

Date Brightness Start Highest point End Pass type
(mag) Time Alt. Az. Time Alt. Az. Time Alt. Az.
13 Dec 4.1 23:31:07 12° W 23:32:34 18° SW 23:34:20 10° S visible
17 Dec 5.8 12:34:22 10° WSW 12:34:50 14° WSW 12:34:50 14° WSW visible
18 Dec 6.0 12:37:14 10° W 12:37:19 10° WNW 12:37:19 10° WNW visible
19 Dec 3.1 11:04:42 10° SSW 11:06:57 34° SE 11:09:14 10° ENE visible
20 Dec 2.5 11:06:24 10° SW 11:08:50 67° NW 11:11:16 10° NE visible
